Girona, Spain

2:11 AM CEST on April 21, 2018 (GMT +0200)
Girona

Weather History for LEGE - August, 2014

Change the Weather History Date:

Saturday, August 9, 2014

  Actual Average Record
Temperature  
Mean Temperature 76 °F -  
Max Temperature 87 °F 83 °F 98 °F (2003)
Min Temperature 66 °F 60 °F 56 °F (2013)
Cooling Degree Days 12    
Growing Degree Days 26 (Base 50)    
Moisture  
Dew Point 67 °F    
Average Humidity 78    
Maximum Humidity 100    
Minimum Humidity 40    
Precipitation  
Precipitation 0.04 in 0.07 in - ()
Sea Level Pressure  
Sea Level Pressure 29.93 in    
Wind  
Wind Speed 4 mph ()    
Max Wind Speed 12 mph    
Max Gust Speed -    
Visibility 7.3 miles    
Events Rain , Thunderstorm    
Averages and records for this station are not official NWS values.
T = Trace of Precipitation, MM = Missing Value Source: Averaged Metar Reports

Daily Weather History Graph

Daily Weather History Graph

Search for Another Location

Airport or City:

Astronomy

Aug. 09, 2014 Rise Set
Actual Time 6:50 AM CEST 8:57 PM CEST
Civil Twilight 6:19 AM CEST 9:28 PM CEST
Nautical Twilight 5:42 AM CEST 10:05 PM CEST
Astronomical Twilight 5:00 AM CEST 10:46 PM CEST
Moon 7:46 PM CEST (8/9) 5:12 AM CEST (8/9)
Length of Visible Light 15h 08m
Length of Day
14h 07m
Waxing Gibbous, 97% of the Moon is Illuminated
Aug 9
Waxing Gibbous
Aug 10
Full
Aug 17
Last Quarter
Aug 25
New
Sep 2
First Quarter

Hourly Weather History & Observations

Time (CEST) Temp. Heat Index Dew Point Humidity Pressure Visibility Wind Dir Wind Speed Gust Speed Precip Events Conditions
12:00 AM 72 °F - 68 °F 84% 29.89 in - WNW 1.2 mph - -  
12:00 AM 71.6 °F - 71.6 °F 100% 29.92 in 6.2 mi SW 4.6 mph - N/A   Scattered Clouds
12:30 AM 69.8 °F - 69.8 °F 100% 29.92 in 6.2 mi NNE 4.6 mph - N/A   Scattered Clouds
1:00 AM 71 °F - 68 °F 86% 29.93 in - NE 3.5 mph - -  
1:00 AM 71.6 °F - 71.6 °F 100% 29.95 in 6.2 mi Variable 2.3 mph - N/A   Scattered Clouds
1:30 AM 71.6 °F - 71.6 °F 100% 29.95 in 6.2 mi NNE 4.6 mph - N/A   Scattered Clouds
2:00 AM 71 °F - 69 °F 91% 29.95 in - NE 5.8 mph - -   Unknown Precipitation
2:00 AM 71.6 °F - 71.6 °F 100% 29.98 in 6.2 mi NE 3.5 mph - N/A   Partly Cloudy
2:30 AM 68.0 °F - 68.0 °F 100% 29.95 in 6.2 mi ENE 6.9 mph - N/A Rain , Thunderstorm Thunderstorms and Rain
3:00 AM 68 °F - 66 °F 91% 29.95 in - NNW 4.6 mph - -   Unknown Precipitation
3:00 AM 68.0 °F - 68.0 °F 100% 29.95 in 6.2 mi NE 5.8 mph - N/A Rain Light Rain
3:30 AM 68.0 °F - 68.0 °F 100% 29.98 in 6.2 mi North 4.6 mph - N/A Rain Light Rain
4:00 AM 67 °F - 66 °F 94% 29.96 in - NNE 8.1 mph - -   Unknown Precipitation
4:00 AM 66.2 °F - 66.2 °F 100% 29.98 in 6.2 mi North 6.9 mph - N/A   Scattered Clouds
4:30 AM 66.2 °F - 66.2 °F 100% 29.98 in 6.2 mi North 6.9 mph - N/A   Mostly Cloudy
5:00 AM 67 °F - 66 °F 94% 29.96 in 12 mi North 4.6 mph - -   Mostly Cloudy
5:00 AM 66.2 °F - 66.2 °F 100% 29.98 in 6.2 mi North 3.5 mph - N/A   Mostly Cloudy
5:30 AM 66.2 °F - 66.2 °F 100% 29.98 in 6.2 mi North 3.5 mph - N/A   Mostly Cloudy
6:00 AM 67 °F - 65 °F 93% 29.96 in - North 3.5 mph - -  
6:00 AM 66.2 °F - 66.2 °F 100% 29.98 in 6.2 mi North 3.5 mph - N/A   Scattered Clouds
6:30 AM 66.2 °F - 66.2 °F 100% 29.98 in 6.2 mi North 1.2 mph - N/A   Scattered Clouds
7:00 AM 66 °F - 65 °F 96% 29.97 in - North 3.5 mph - -  
7:00 AM 66.2 °F - 66.2 °F 100% 29.98 in 6.2 mi Variable 2.3 mph - N/A   Scattered Clouds
7:30 AM 66.2 °F - 66.2 °F 100% 29.98 in 6.2 mi NNW 2.3 mph - N/A   Scattered Clouds
8:00 AM 68 °F - 66 °F 93% 29.96 in 12 mi NE 1.2 mph - -   Partly Cloudy
8:00 AM 68.0 °F - 68.0 °F 100% 29.98 in 6.2 mi Variable 1.2 mph - N/A   Scattered Clouds
8:30 AM 68.0 °F - 68.0 °F 100% 29.98 in 6.2 mi Variable 1.2 mph - N/A   Partly Cloudy
9:00 AM 72 °F - 67 °F 80% 29.96 in - NNE 2.3 mph - -   Unknown Precipitation
9:00 AM 69.8 °F - 69.8 °F 100% 29.98 in 6.2 mi Variable 1.2 mph - N/A   Partly Cloudy
9:30 AM 69.8 °F - 69.8 °F 100% 29.98 in 6.2 mi Calm Calm - N/A   Partly Cloudy
10:00 AM 74 °F - 68 °F 78% 29.96 in - Calm Calm - -  
10:00 AM 71.6 °F - 71.6 °F 100% 29.98 in 6.2 mi Calm Calm - N/A   Partly Cloudy
10:30 AM 73.4 °F - 73.4 °F 100% 29.98 in 6.2 mi Calm Calm - N/A   Partly Cloudy
11:00 AM 80 °F - 60 °F 41% 29.96 in 19 mi Calm Calm - -   Scattered Clouds
11:00 AM 78.8 °F - 64.4 °F 61% 29.98 in 6.2 mi Calm Calm - N/A   Partly Cloudy
11:30 AM 78.8 °F - 60.8 °F 54% 29.98 in 6.2 mi SSE 1.2 mph - N/A   Partly Cloudy
12:00 PM 84 °F - 64 °F 41% 29.94 in - SE 2.3 mph - -  
12:00 PM 80.6 °F 81.8 °F 62.6 °F 54% 29.98 in 6.2 mi East 1.2 mph - N/A   Partly Cloudy
12:30 PM 80.6 °F 81.5 °F 60.8 °F 51% 29.95 in 6.2 mi SSE 5.8 mph - N/A   Partly Cloudy
1:00 PM 85 °F - 64 °F 40% 29.91 in - SSE 4.6 mph - -  
1:30 PM 82.4 °F 83.9 °F 64.4 °F 54% 29.95 in 6.2 mi SSE 3.5 mph - N/A   Partly Cloudy
2:00 PM 86 °F - 65 °F 40% 29.89 in 16 mi South 5.8 mph - -   Partly Cloudy
2:00 PM 84.2 °F 85.6 °F 64.4 °F 51% 29.92 in 6.2 mi SSE 4.6 mph - N/A   Scattered Clouds
2:30 PM 84.2 °F 86.6 °F 66.2 °F 55% 29.92 in 6.2 mi SSW 8.1 mph - N/A   Partly Cloudy
3:00 PM 86 °F - 67 °F 43% 29.88 in - SSW 11.5 mph - -  
3:00 PM 82.4 °F 83.9 °F 64.4 °F 54% 29.92 in 6.2 mi SSW 11.5 mph - N/A   Partly Cloudy
3:30 PM 82.4 °F 83.9 °F 64.4 °F 54% 29.92 in 6.2 mi South 11.5 mph - N/A   Partly Cloudy
4:00 PM 85 °F - 67 °F 45% 29.87 in - South 10.4 mph - -  
4:00 PM 82.4 °F 84.6 °F 66.2 °F 58% 29.89 in 6.2 mi South 10.4 mph - N/A   Partly Cloudy
4:30 PM 84.2 °F 85.0 °F 62.6 °F 48% 29.89 in 6.2 mi South 11.5 mph - N/A   Partly Cloudy
5:00 PM 86 °F - 66 °F 42% 29.86 in 16 mi South 9.2 mph - -   Scattered Clouds
5:00 PM 84.2 °F 85.6 °F 64.4 °F 51% 29.89 in 6.2 mi South 8.1 mph - N/A   Partly Cloudy
5:30 PM 82.4 °F 83.4 °F 62.6 °F 51% 29.89 in 6.2 mi South 9.2 mph - N/A   Partly Cloudy
6:00 PM 84 °F - 65 °F 43% 29.86 in - South 10.4 mph - -  
6:00 PM 82.4 °F 83.9 °F 64.4 °F 54% 29.89 in 6.2 mi South 10.4 mph - N/A   Partly Cloudy
6:30 PM 80.6 °F 82.7 °F 66.2 °F 61% 29.89 in 6.2 mi SSE 9.2 mph - N/A   Partly Cloudy
7:00 PM 82 °F - 67 °F 51% 29.86 in - South 8.1 mph - -  
7:30 PM 78.8 °F - 64.4 °F 61% 29.89 in 6.2 mi South 8.1 mph - N/A   Partly Cloudy
8:00 PM 79 °F - 67 °F 58% 29.86 in 17 mi SSW 8.1 mph - -   Scattered Clouds
8:00 PM 78.8 °F - 68.0 °F 69% 29.89 in 6.2 mi South 6.9 mph - N/A   Partly Cloudy
8:30 PM 77.0 °F - 71.6 °F 83% 29.89 in 6.2 mi Variable 1.2 mph - N/A   Partly Cloudy
9:00 PM 77 °F - 69 °F 68% 29.86 in - SW 2.3 mph - -  
9:00 PM 75.2 °F - 73.4 °F 94% 29.89 in 6.2 mi Variable 1.2 mph - N/A   Partly Cloudy
9:30 PM 73.4 °F - 73.4 °F 100% 29.89 in 6.2 mi WSW 1.2 mph - N/A   Partly Cloudy
10:00 PM 75 °F - 69 °F 78% 29.86 in - SSE 2.3 mph - -  
10:30 PM 73.4 °F - 73.4 °F 100% 29.89 in 6.2 mi SSE 3.5 mph - N/A   Partly Cloudy
11:00 PM 74 °F - 71 °F 86% 29.87 in - Calm Calm - -  
11:00 PM 73.4 °F - 73.4 °F 100% 29.89 in 6.2 mi Calm Calm - N/A   Partly Cloudy